Simultaneous Nadir Overpasses (SNOs) Predictions

Prediction of SNOs between GOES-16 and NOAA-20 Satellite Orbit:

Table of predicted SNOs for the next 14.0 days since TLE Epoch: 4/17/2021
Index Date Time (GOES-16) GOES-16 Lat,Lon NOAA-20 Lat,Lon Distance(km) Time Diff (sec)
1 04/17/2021 18:39:15 0.04, -75.19 -0.78, -78.79 410.24 80
2 04/18/2021 18:23:10 0.04, -75.19 0.21, -74.25 105.58 80
3 04/20/2021 06:44:58 -0.03, -75.19 0.97, -79.53 494.57 80
4 04/21/2021 06:23:35 -0.03, -75.19 -0.09, -75.01 21.37 80
5 04/23/2021 18:26:48 0.02, -75.18 -0.09, -75.79 68.42 80
6 04/24/2021 18:10:43 0.02, -75.19 0.91, -71.26 448.15 80
7 04/26/2021 06:32:32 -0.02, -75.21 0.27, -76.53 150.71 80
8 04/27/2021 06:11:07 -0.02, -75.21 -0.73, -72.00 365.81 80
9 04/28/2021 18:33:04 0.02, -75.21 -0.44, -77.31 239.58 80
10 04/29/2021 18:17:00 0.02, -75.21 0.56, -72.78 277.27 80
